EW8784 Weather Reports


time (UTC)temp
C
wind
direction
speed
KPH
gust
KPH
rain 1hr
cm
rain 24hr
cm
rain mn
cm
humidity
%
barometer
mb
20260906000005 19 46 14.5 22.5 0.00 0.23 0.13 100 1016.7
20260905233005 20 46 11.3 22.5 0.00 0.23 0.13 100 1017.1
20260905230006 20 98 11.3 19.3 0.00 0.23 0.13 100 1017.3
20260905224503 20 15 14.5 22.5 0.00 0.23 0.13 100 1017.4
20260905223006 20 10 12.9 19.3 0.00 0.23 0.13 100 1017.3
20260905221504 20 91 9.7 16.1 0.00 0.23 0.13 100 1017.2
20260905220007 20 39 9.7 19.3 0.00 0.23 0.13 100 1016.9
20260905214504 20 14 12.9 20.9 0.00 0.23 0.13 100 1016.7
20260905213002 20 21 11.3 19.3 0.00 0.20 0.10 100 1016.9
20260905211505 20 105 9.7 14.5 0.00 0.18 0.08 100 1017.0
20260905210003 20 105 14.5 27.4 0.00 0.18 0.08 100 1017.0
20260905204505 20 100 11.3 19.3 0.00 0.18 0.08 100 1016.8
20260905203001 20 84 12.9 29.0 0.00 0.18 0.08 100 1016.8
20260905201505 20 359 11.3 24.1 0.00 0.18 0.08 100 1016.7
20260905194505 21 75 12.9 20.9 0.00 0.18 0.08 100 1016.4
20260905193003 21 23 9.7 17.7 0.00 0.18 0.08 100 1016.4
20260905191506 21 96 8.0 14.5 0.00 0.18 0.08 100 1016.2
20260905190004 21 79 14.5 24.1 0.00 0.15 0.05 100 1016.3
20260905184503 22 359 11.3 24.1 0.00 0.15 0.05 100 1016.2
20260905183006 22 359 11.3 17.7 0.00 0.15 0.05 100 1016.3
20260905180007 22 51 8.0 14.5 0.00 0.15 0.05 100 1016.5
20260905174505 22 89 11.3 16.1 0.00 0.15 0.05 100 1016.2
20260905173008 22 32 19.3 30.6 0.00 0.15 0.05 100 1016.4
20260905171505 22 70 12.9 17.7 0.00 0.15 0.05 100 1016.4
20260905170003 22 94 11.3 24.1 0.00 0.15 0.05 100 1016.3
20260905164506 22 94 8.0 14.5 0.00 0.15 0.05 100 1016.3
20260905163003 22 117 6.4 12.9 0.00 0.15 0.05 100 1016.2
20260905161508 22 101 9.7 12.9 0.00 0.13 0.03 100 1016.3
20260905160005 22 136 8.0 14.5 0.00 0.10 0.00 100 1016.4
20260905154503 22 89 9.7 14.5 0.00 0.10 0.00 100 1016.4
20260905153039 22 38 8.0 12.9 0.00 0.10 0.00 100 1016.4
20260905151503 22 128 8.0 14.5 0.00 0.10 0.00 100 1016.5
20260905150007 22 127 9.7 16.1 0.00 0.10 0.00 100 1016.6
20260905144504 22 59 8.0 14.5 0.00 0.10 0.10 100 1016.6
20260905140007 22 30 8.0 12.9 0.00 0.10 0.10 100 1016.8
20260905134504 22 62 4.8 8.0 0.00 0.10 0.10 100 1016.7
20260905133007 22 138 4.8 11.3 0.00 0.10 0.10 100 1016.9
20260905131504 22 80 6.4 14.5 0.00 0.10 0.10 100 1016.9
20260905130002 22 103 9.7 16.1 0.00 0.10 0.10 100 1016.9
20260905124505 22 359 11.3 17.7 0.00 0.10 0.10 100 1016.9
20260905123008 22 44 8.0 14.5 0.00 0.10 0.10 100 1016.9
20260905121505 22 108 9.7 16.1 0.00 0.10 0.10 100 1017.0
20260905120007 22 34 6.4 8.0 0.00 0.05 0.05 100 1016.9
20260905114503 22 125 6.4 11.3 0.00 0.05 0.05 100 1016.7
20260905113006 22 101 6.4 12.9 0.00 0.05 0.05 100 1016.6
20260905111507 22 149 8.0 16.1 0.00 0.05 0.05 100 1016.4
20260905110008 23 122 8.0 12.9 0.00 0.05 0.05 100 1016.3
20260905104503 23 98 4.8 12.9 0.00 0.05 0.05 100 1016.2
20260905103005 23 45 4.8 12.9 0.00 0.05 0.05 100 1016.1
20260905101507 23 167 4.8 16.1 0.00 0.05 0.05 100 1015.8
20260905100008 23 101 8.0 14.5 0.00 0.05 0.05 100 1015.6
20260905094504 23 121 3.2 4.8 0.00 0.05 0.05 100 1015.4
20260905093007 23 98 4.8 8.0 0.00 0.05 0.05 100 1015.4
20260905090002 24 104 3.2 9.7 0.00 0.03 0.03 100 1015.0
20260905084504 24 110 3.2 4.8 0.00 0.03 0.03 100 1014.9
20260905083007 24 134 4.8 9.7 0.00 0.03 0.03 100 1014.8
20260905081505 24 152 6.4 12.9 0.00 0.03 0.03 100 1014.7
20260905074512 25 135 3.2 6.4 0.00 0.03 0.03 100 1014.7
20260905073007 25 53 3.2 4.8 0.00 0.03 0.03 100 1014.4
20260905071507 25 132 3.2 6.4 0.00 0.03 0.03 100 1014.3
20260905064506 25 138 4.8 11.3 0.00 0.03 0.03 100 1014.2
20260905063006 25 87 3.2 4.8 0.00 0.03 0.03 100 1014.3
20260905061508 25 110 3.2 3.2 0.00 0.03 0.03 100 1014.2
20260905060005 25 359 4.8 12.9 0.00 0.03 0.03 100 1014.2
20260905053003 25 107 3.2 12.9 0.00 0.03 0.03 100 1014.4
20260905051505 24 136 6.4 11.3 0.00 0.03 0.03 100 1014.4
20260905050008 24 70 3.2 4.8 0.00 0.03 0.03 100 1014.5
20260905044505 23 142 6.4 12.9 0.00 0.03 0.03 100 1014.5
20260905043002 23 134 8.0 14.5 0.00 0.03 0.03 100 1014.4
20260905041503 23 359 4.8 12.9 0.00 0.03 0.03 100 1014.5
20260905040005 23 121 8.0 16.1 0.00 0.03 0.03 100 1014.7
20260905034507 23 62 6.4 12.9 0.00 0.03 0.03 100 1014.7
20260905031502 22 30 6.4 9.7 0.00 0.00 0.00 100 1014.8
20260905030006 22 55 6.4 9.7 0.00 0.00 0.00 100 1014.8
20260905024503 22 23 4.8 11.3 0.00 0.00 0.00 100 1015.0
20260905023006 22 359 8.0 14.5 0.00 0.00 0.00 100 1015.0
20260905020008 22 97 4.8 11.3 0.00 0.05 0.00 100 1015.5
20260905014502 22 125 3.2 8.0 0.00 0.05 0.00 100 1015.7
20260905013006 22 86 3.2 8.0 0.00 0.05 0.00 1 1015.8
20260905011507 22 359 6.4 12.9 0.00 0.05 0.00 100 1015.8
20260905010003 22 11 0.0 1.6 0.00 0.05 0.00 100 1015.7
20260905004504 22 20 3.2 4.8 0.00 0.05 0.00 100 1015.8
20260905003006 21 60 6.4 11.3 0.00 0.08 0.00 100 1015.6
20260905001502 21 76 0.0 1.6 0.00 0.08 0.00 100 1015.4